CW1020 Weather Reports


Display with metric or nautical units.
time (UTC)temp
F
wind
direction
speed
MPH
gust
MPH
rain 1hr
in
rain 24hr
in
rain mn
in
humidity
%
barometer
mb
20260508155502 65 331 1.0 6.0 0.00 0.00 0.00 67 1020.8
20260508155003 64 322 1.0 5.0 0.00 0.00 0.00 68 1020.8
20260508154503 64 318 1.0 4.0 0.00 0.00 0.00 69 1020.8
20260508154002 64 326 2.0 2.0 0.00 0.00 0.00 71 1020.8
20260508153502 63 322 2.0 4.0 0.00 0.00 0.00 71 1020.8
20260508152503 63 330 3.0 4.0 0.00 0.00 0.00 73 1020.9
20260508152002 62 330 2.0 5.0 0.00 0.00 0.00 74 1020.9
20260508151504 62 336 2.0 3.0 0.00 0.00 0.00 76 1020.9
20260508151002 61 341 1.0 3.0 0.00 0.00 0.00 78 1021.0
20260508150004 60 5 1.0 2.0 0.00 0.00 0.00 80 1021.1
20260508145502 59 6 1.0 3.0 0.00 0.00 0.00 81 1020.9
20260508145003 59 29 0.0 2.0 0.00 0.00 0.00 82 1020.9
20260508144502 58 32 1.0 2.0 0.00 0.00 0.00 82 1020.9
20260508144003 58 33 1.0 3.0 0.00 0.00 0.00 83 1020.8
20260508143503 57 35 1.0 2.0 0.00 0.00 0.00 84 1020.7
20260508143003 56 26 1.0 3.0 0.00 0.00 0.00 84 1020.7
20260508142002 56 279 0.0 1.0 0.00 0.00 0.00 85 1020.7
20260508141502 56 277 0.0 2.0 0.00 0.00 0.00 85 1020.7
20260508141003 56 0 0.0 0.0 0.00 0.00 0.00 85 1020.7
20260508140503 55 276 0.0 2.0 0.00 0.00 0.00 85 1020.6
20260508140004 55 0 0.0 0.0 0.00 0.00 0.00 85 1020.5
20260508133503 55 0 0.0 0.0 0.00 0.00 0.00 83 1020.4
20260508132503 55 0 0.0 0.0 0.00 0.00 0.00 82 1020.4
20260508132003 55 0 0.0 0.0 0.00 0.00 0.00 82 1020.4
20260508131502 55 0 0.0 0.0 0.00 0.00 0.00 82 1020.4
20260508130504 55 0 0.0 0.0 0.00 0.00 0.00 81 1020.4
20260508130002 55 0 0.0 0.0 0.00 0.00 0.00 82 1020.4
20260508125503 55 0 0.0 0.0 0.00 0.00 0.00 81 1020.2
20260508125002 55 276 0.0 1.0 0.00 0.00 0.00 81 1020.2
20260508124503 56 278 0.0 1.0 0.00 0.00 0.00 80 1020.2
20260508124002 56 279 0.0 1.0 0.00 0.00 0.00 80 1020.1
20260508123502 56 279 0.0 1.0 0.00 0.00 0.00 79 1020.0
20260508123003 56 0 0.0 0.0 0.00 0.00 0.00 79 1019.9
20260508122502 56 0 0.0 0.0 0.00 0.00 0.00 80 1019.9
20260508122003 56 279 0.0 1.0 0.00 0.00 0.00 80 1019.9
20260508121503 56 279 0.0 1.0 0.00 0.00 0.00 80 1020.0
20260508120503 56 0 0.0 0.0 0.00 0.00 0.00 80 1020.0
20260508120003 56 0 0.0 0.0 0.00 0.00 0.00 79 1020.0
20260508115503 56 0 0.0 0.0 0.00 0.00 0.00 79 1020.0
20260508115002 56 279 0.0 2.0 0.00 0.00 0.00 79 1019.9
20260508114503 56 280 0.0 1.0 0.00 0.00 0.00 78 1020.0
20260508113502 56 0 0.0 0.0 0.00 0.00 0.00 79 1019.8
20260508113003 56 276 0.0 1.0 0.00 0.00 0.00 79 1019.8
20260508112502 56 271 0.0 1.0 0.00 0.00 0.00 80 1019.9
20260508112003 56 0 0.0 0.0 0.00 0.00 0.00 80 1019.9
20260508111002 55 270 0.0 1.0 0.00 0.00 0.00 80 1019.9
20260508110503 55 270 0.0 1.0 0.00 0.00 0.00 79 1019.9
20260508110004 55 0 0.0 0.0 0.00 0.00 0.00 79 1019.9
20260508105503 55 270 0.0 1.0 0.00 0.00 0.00 79 1019.9
20260508105002 55 267 0.0 1.0 0.00 0.00 0.00 79 1019.9
20260508104503 55 0 0.0 0.0 0.00 0.00 0.00 79 1019.9
20260508104003 55 267 1.0 1.0 0.00 0.00 0.00 78 1019.9
20260508103003 55 260 1.0 3.0 0.00 0.00 0.00 78 1020.1
20260508102503 55 268 1.0 2.0 0.00 0.00 0.00 79 1020.1
20260508102003 55 276 0.0 3.0 0.00 0.00 0.00 78 1020.1
20260508101503 55 281 0.0 1.0 0.00 0.00 0.00 78 1020.1
20260508101002 55 0 0.0 0.0 0.00 0.00 0.00 78 1020.2
20260508100503 55 0 0.0 0.0 0.00 0.00 0.00 77 1020.1
20260508100003 55 282 0.0 1.0 0.00 0.00 0.00 77 1020.1
20260508095503 56 282 0.0 1.0 0.00 0.00 0.00 76 1019.8
20260508095003 56 0 0.0 0.0 0.00 0.00 0.00 75 1019.9
20260508093503 56 0 0.0 0.0 0.00 0.00 0.00 77 1020.0
20260508093003 56 0 0.0 0.0 0.00 0.00 0.00 77 1020.0
20260508092502 56 282 0.0 1.0 0.00 0.00 0.00 76 1020.0
20260508092003 56 283 0.0 1.0 0.00 0.00 0.00 76 1020.0
20260508091503 56 0 0.0 0.0 0.00 0.00 0.00 77 1020.0
20260508091002 56 0 0.0 0.0 0.00 0.00 0.00 76 1020.0
20260508090503 56 283 0.0 1.0 0.00 0.00 0.00 76 1020.1
20260508090003 56 283 0.0 1.0 0.00 0.00 0.00 76 1020.1
20260508084503 56 279 0.0 1.0 0.00 0.00 0.00 74 1020.1
20260508084003 56 0 0.0 0.0 0.00 0.00 0.00 75 1020.1
20260508083503 56 0 0.0 0.0 0.00 0.00 0.00 76 1020.3
20260508083003 56 0 0.0 0.0 0.00 0.00 0.00 76 1020.3
20260508082503 56 0 0.0 0.0 0.00 0.00 0.00 75 1020.3
20260508082003 56 279 0.0 2.0 0.00 0.00 0.00 76 1020.3
20260508081503 56 0 0.0 0.0 0.00 0.00 0.00 75 1020.4
20260508080503 57 280 0.0 1.0 0.00 0.00 0.00 74 1020.4
20260508080003 57 0 0.0 0.0 0.00 0.00 0.00 74 1020.6
20260508075503 57 0 0.0 0.0 0.00 0.00 0.00 73 1020.6
20260508075002 58 0 0.0 0.0 0.00 0.00 0.00 71 1020.5
20260508074003 58 303 0.0 1.0 0.00 0.00 0.00 71 1020.5
20260508073503 58 0 0.0 0.0 0.00 0.00 0.00 69 1020.5
20260508073003 59 0 0.0 0.0 0.00 0.00 0.00 69 1020.6
20260508072503 59 0 0.0 0.0 0.00 0.00 0.00 71 1020.5
20260508072003 59 0 0.0 0.0 0.00 0.00 0.00 69 1020.5
20260508071503 60 0 0.0 0.0 0.00 0.00 0.00 69 1020.4
20260508070503 60 304 1.0 2.0 0.00 0.00 0.00 66 1020.3
20260508070004 60 305 1.0 1.0 0.00 0.00 0.00 68 1020.4
20260508065503 60 305 1.0 3.0 0.00 0.00 0.00 68 1020.4
20260508064002 61 0 0.0 0.0 0.00 0.00 0.00 68 1020.4
20260508063503 61 297 0.0 4.0 0.00 0.00 0.00 67 1020.5
20260508063003 61 0 0.0 0.0 0.00 0.00 0.00 66 1020.4
20260508062503 61 0 0.0 0.0 0.00 0.00 0.00 65 1020.5
20260508062004 62 0 0.0 0.0 0.00 0.00 0.00 67 1020.5
20260508061503 62 294 0.0 2.0 0.00 0.00 0.00 65 1020.5
20260508061003 62 0 0.0 0.0 0.00 0.00 0.00 66 1020.5
20260508060502 62 0 0.0 0.0 0.00 0.00 0.00 65 1020.4
20260508060005 62 0 0.0 0.0 0.00 0.00 0.00 65 1020.5
20260508055503 62 290 0.0 2.0 0.00 0.00 0.00 65 1020.3
20260508055003 62 0 0.0 0.0 0.00 0.00 0.00 65 1020.3
20260508054503 62 284 0.0 2.0 0.00 0.00 0.00 64 1020.3
20260508054003 62 283 0.0 2.0 0.00 0.00 0.00 64 1020.4
20260508053004 62 280 1.0 4.0 0.00 0.00 0.00 64 1020.4
20260508052003 62 274 2.0 4.0 0.00 0.00 0.00 64 1020.4
20260508051503 62 283 1.0 6.0 0.00 0.00 0.00 64 1020.5
20260508051003 62 244 1.0 7.0 0.00 0.00 0.00 64 1020.5
20260508050503 62 0 1.0 0.0 0.00 0.00 0.00 64 1020.5
20260508050003 62 272 2.0 4.0 0.00 0.00 0.00 64 1020.5
20260508045504 62 275 2.0 4.0 0.00 0.00 0.00 65 1020.5
20260508044503 62 239 2.0 3.0 0.00 0.00 0.00 64 1020.4
20260508043503 62 229 2.0 4.0 0.00 0.00 0.00 64 1020.3
20260508043003 62 241 2.0 3.0 0.00 0.00 0.00 64 1020.3
20260508042503 63 244 3.0 3.0 0.00 0.00 0.00 64 1020.2
20260508042003 63 244 4.0 3.0 0.00 0.00 0.00 64 1020.2
20260508041003 63 239 3.0 5.0 0.00 0.00 0.00 63 1020.1
20260508040503 63 250 3.0 4.0 0.00 0.00 0.00 63 1020.1
20260508040004 63 252 3.0 4.0 0.00 0.00 0.00 63 1020.0
20260508035503 63 250 3.0 5.0 0.00 0.00 0.00 62 1020.0
20260508034503 64 254 4.0 4.0 0.00 0.00 0.00 61 1019.9
20260508034004 64 252 4.0 5.0 0.00 0.00 0.00 61 1019.9
20260508032503 65 270 5.0 7.0 0.00 0.00 0.00 60 1019.6
20260508032003 65 267 4.0 7.0 0.00 0.00 0.00 60 1019.6
20260508031503 65 274 3.0 6.0 0.00 0.00 0.00 59 1019.6
20260508031004 65 276 4.0 4.0 0.00 0.00 0.00 59 1019.6
20260508030503 66 268 5.0 6.0 0.00 0.00 0.00 59 1019.5
20260508030004 66 265 4.0 7.0 0.00 0.00 0.00 58 1019.5
20260508025503 66 270 4.0 6.0 0.00 0.00 0.00 58 1019.5
20260508025003 66 272 2.0 7.0 0.00 0.00 0.00 57 1019.4
20260508024003 67 284 2.0 2.0 0.00 0.00 0.00 57 1019.2
20260508023502 67 282 2.0 3.0 0.00 0.00 0.00 57 1019.3
20260508023003 68 283 2.0 6.0 0.00 0.00 0.00 57 1019.3
20260508021504 69 270 4.0 7.0 0.00 0.00 0.00 55 1019.3
20260508021003 69 279 4.0 7.0 0.00 0.00 0.00 54 1019.3
20260508020503 70 293 5.0 8.0 0.00 0.00 0.00 53 1019.3
20260508015503 70 273 7.0 10.0 0.00 0.00 0.00 52 1019.0
20260508015003 70 298 6.0 8.0 0.00 0.00 0.00 53 1018.9
20260508014503 71 303 6.0 11.0 0.00 0.00 0.00 53 1019.0
20260508014004 71 308 6.0 10.0 0.00 0.00 0.00 52 1018.9
20260508013503 71 301 7.0 9.0 0.00 0.00 0.00 52 1018.8
20260508013003 71 300 7.0 11.0 0.00 0.00 0.00 51 1018.7
20260508012503 71 308 7.0 12.0 0.00 0.00 0.00 51 1018.7
20260508012003 72 306 8.0 11.0 0.00 0.00 0.00 51 1019.0
20260508011503 72 305 8.0 12.0 0.00 0.00 0.00 51 1019.0
20260508011004 72 307 7.0 15.0 0.00 0.00 0.00 50 1019.0
20260508010503 72 300 8.0 10.0 0.00 0.00 0.00 50 1019.1
20260508010003 72 309 9.0 12.0 0.00 0.00 0.00 49 1019.1
20260508005503 72 306 9.0 13.0 0.00 0.00 0.00 49 1018.8
20260508005003 73 298 9.0 12.0 0.00 0.00 0.00 49 1018.8
20260508004503 73 290 8.0 13.0 0.00 0.00 0.00 49 1018.8
20260508004003 73 312 9.0 14.0 0.00 0.00 0.00 48 1018.8
20260508003004 73 307 9.0 17.0 0.00 0.00 0.00 47 1018.8
20260508002503 73 306 9.0 12.0 0.00 0.00 0.00 48 1018.8
20260508002003 73 308 10.0 16.0 0.00 0.00 0.00 47 1018.8
20260508001003 73 306 10.0 18.0 0.00 0.00 0.00 47 1018.8
20260508000504 73 306 11.0 16.0 0.00 0.00 0.00 47 1018.8
20260508000003 73 304 11.0 15.0 0.00 0.00 0.00 46 1018.8
20260507235504 73 309 11.0 13.0 0.00 0.00 0.00 47 1018.8
20260507235003 74 311 11.0 16.0 0.00 0.00 0.00 45 1018.7
20260507234503 74 311 12.0 19.0 0.00 0.00 0.00 45 1018.6
20260507234004 74 298 11.0 15.0 0.00 0.00 0.00 45 1018.6
20260507233503 74 302 11.0 20.0 0.00 0.00 0.00 44 1018.6
20260507233005 74 304 11.0 16.0 0.00 0.00 0.00 44 1018.7
20260507232503 74 300 12.0 18.0 0.00 0.00 0.00 45 1018.7
20260507232005 74 303 12.0 18.0 0.00 0.00 0.00 44 1018.7
20260507231503 74 306 11.0 17.0 0.00 0.00 0.00 44 1018.6
20260507231003 75 313 10.0 16.0 0.00 0.00 0.00 43 1018.7
20260507230004 75 297 11.0 13.0 0.00 0.00 0.00 43 1018.7
20260507225503 75 316 10.0 14.0 0.00 0.00 0.00 43 1018.7
20260507225004 76 313 8.0 18.0 0.00 0.00 0.00 42 1018.7
20260507224004 76 289 7.0 11.0 0.00 0.00 0.00 42 1018.9
20260507223503 76 305 9.0 11.0 0.00 0.00 0.00 43 1019.0
20260507223003 76 302 9.0 13.0 0.00 0.00 0.00 43 1019.0
20260507222503 76 318 9.0 17.0 0.00 0.00 0.00 43 1019.1
20260507222004 76 306 8.0 13.0 0.00 0.00 0.00 43 1019.1
20260507221503 76 315 8.0 16.0 0.00 0.00 0.00 43 1019.3
20260507221005 75 307 9.0 10.0 0.00 0.00 0.00 44 1019.3
20260507220503 75 307 9.0 11.0 0.00 0.00 0.00 44 1019.3
20260507220003 75 312 9.0 15.0 0.00 0.00 0.00 44 1019.4
20260507215503 74 323 10.0 17.0 0.00 0.00 0.00 45 1019.2
20260507215003 74 315 10.0 17.0 0.00 0.00 0.00 44 1019.3
20260507214504 74 314 10.0 14.0 0.00 0.00 0.00 45 1019.4
20260507214003 74 320 10.0 16.0 0.00 0.00 0.00 46 1019.5
20260507213504 74 314 9.0 15.0 0.00 0.00 0.00 47 1019.5
20260507213003 73 316 9.0 16.0 0.00 0.00 0.00 47 1019.6
20260507212502 73 318 9.0 15.0 0.00 0.00 0.00 48 1019.5
20260507212002 72 324 8.0 16.0 0.00 0.00 0.00 49 1019.6
20260507211502 72 329 8.0 15.0 0.00 0.00 0.00 49 1019.6
20260507211002 72 319 9.0 12.0 0.00 0.00 0.00 50 1019.7
20260507210002 72 324 9.0 16.0 0.00 0.00 0.00 50 1019.8
20260507205502 71 315 10.0 15.0 0.00 0.00 0.00 51 1019.8
20260507205002 71 321 13.0 13.0 0.00 0.00 0.00 52 1019.9
20260507204502 71 321 13.0 18.0 0.00 0.00 0.00 52 1019.8
20260507204002 71 317 11.0 18.0 0.00 0.00 0.00 51 1020.0
20260507203502 71 315 11.0 17.0 0.00 0.00 0.00 51 1019.9
20260507203002 71 307 11.0 14.0 0.00 0.00 0.00 51 1019.9
20260507202502 71 323 12.0 19.0 0.00 0.00 0.00 51 1020.0
20260507202002 71 316 13.0 18.0 0.00 0.00 0.00 51 1020.1
20260507201002 71 318 12.0 21.0 0.00 0.00 0.00 51 1020.1
20260507200502 71 313 12.0 19.0 0.00 0.00 0.00 52 1020.2
20260507200002 71 317 11.0 19.0 0.00 0.00 0.00 51 1020.0
20260507195502 71 324 13.0 18.0 0.00 0.00 0.00 52 1020.0
20260507195002 70 320 13.0 18.0 0.00 0.00 0.00 52 1020.0
20260507194002 71 318 12.0 17.0 0.00 0.00 0.00 51 1020.0
20260507193502 70 322 11.0 18.0 0.00 0.00 0.00 51 1020.0
20260507193002 70 319 11.0 17.0 0.00 0.00 0.00 51 1020.0
20260507192503 70 322 11.0 18.0 0.00 0.00 0.00 51 1020.1
20260507192002 70 318 11.0 17.0 0.00 0.00 0.00 51 1020.0
20260507191502 70 317 11.0 15.0 0.00 0.00 0.00 52 1020.2
20260507191002 70 313 11.0 17.0 0.00 0.00 0.00 52 1020.2
20260507190502 70 319 10.0 18.0 0.00 0.00 0.00 51 1020.1
20260507190004 70 316 10.0 16.0 0.00 0.00 0.00 52 1020.3
20260507185502 70 316 11.0 16.0 0.00 0.00 0.00 52 1020.4
20260507185002 70 313 10.0 18.0 0.00 0.00 0.00 52 1020.4
20260507184504 70 317 9.0 12.0 0.00 0.00 0.00 52 1020.4
20260507184003 70 323 8.0 14.0 0.00 0.00 0.00 52 1020.4
20260507183502 70 322 8.0 13.0 0.00 0.00 0.00 52 1020.6
20260507182502 70 319 7.0 12.0 0.00 0.00 0.00 52 1020.6
20260507181503 70 329 6.0 15.0 0.00 0.00 0.00 52 1020.7
20260507181003 69 326 6.0 11.0 0.00 0.00 0.00 52 1020.8
20260507180503 69 315 7.0 10.0 0.00 0.00 0.00 52 1020.9
20260507180002 69 314 8.0 11.0 0.00 0.00 0.00 52 1021.0
20260507175502 68 316 9.0 13.0 0.00 0.00 0.00 53 1020.7
20260507175002 68 319 7.0 13.0 0.00 0.00 0.00 52 1020.7
20260507174503 68 321 7.0 13.0 0.00 0.00 0.00 53 1020.6
20260507174003 67 320 8.0 11.0 0.00 0.00 0.00 54 1020.6
20260507173502 67 318 8.0 16.0 0.00 0.00 0.00 54 1020.7
20260507173004 67 320 9.0 12.0 0.00 0.00 0.00 54 1020.7
20260507172502 66 316 9.0 13.0 0.00 0.00 0.00 55 1020.7
20260507172003 66 319 8.0 13.0 0.00 0.00 0.00 54 1020.8
20260507171502 66 321 8.0 14.0 0.00 0.00 0.00 56 1020.7
20260507171002 66 322 8.0 11.0 0.00 0.00 0.00 55 1020.8
20260507170502 65 323 7.0 12.0 0.00 0.00 0.00 55 1020.7
20260507170002 65 322 8.0 12.0 0.00 0.00 0.00 57 1020.8
20260507165503 65 320 7.0 11.0 0.00 0.00 0.00 56 1020.8
20260507165003 65 324 6.0 12.0 0.00 0.00 0.00 56 1020.8
20260507164502 65 318 6.0 10.0 0.00 0.00 0.00 57 1020.9
20260507163503 64 322 3.0 11.0 0.00 0.00 0.00 57 1021.0
20260507162503 63 325 3.0 8.0 0.00 0.00 0.00 60 1021.0
20260507162003 63 332 3.0 8.0 0.00 0.00 0.00 60 1021.0
20260507161503 62 326 3.0 4.0 0.00 0.00 0.00 62 1021.1
20260507161003 62 328 2.0 6.0 0.00 0.00 0.00 63 1021.1
20260507160502 61 340 1.0 3.0 0.00 0.00 0.00 65 1021.2
20260507160003 61 328 1.0 3.0 0.00 0.00 0.00 67 1021.3